Home   Weather   Kalamaria   Past weeks

Flag for Greece Past Weather in Kalamaria, Greece — Yesterday and Last 2 Weeks

Now
59 °F

Passing clouds.


Feels Like: 58 °F
Forecast: 56 / 74 °F
Wind: 6 mph from Southeast

Location: Thessaloniki Airport

Current Time: Apr 30, 2017 at 2:32:23 am

Latest Report: Apr 30, 2017 at 1:50 am


Visibility: N/A

Pressure: 29.83 "Hg

Humidity: 72%

Dew Point: 50 °F

Location of KalamariaLocation

Past Weather in Kalamaria — Graph

°F

Kalamaria Temperature Yesterday

Maximum temperature yesterday: 72 °F (at 4:20 pm)
Minimum temperature yesterday: 52 °F (at 5:20 am)
Average temperature yesterday: 63 °F

High & Low Weather Summary for the Past Weeks

 TemperatureHumidityPressure
High79 °F (Apr 28, 4:20 pm)100% (Apr 16, 7:50 am)30.24 "Hg (Apr 16, 7:50 am)
Low37 °F (Apr 22, 7:20 am)15% (Apr 24, 5:20 pm)29.71 "Hg (Apr 16, 7:50 pm)
Average58 °F54%29.99 "Hg
* Reported Apr 15 1:20 am — Apr 30 1:20 am, Kalamaria, Weather by CustomWeather, © 2017

Note: Actual official high and low records may vary slightly from our data, if they occured in-between our weather recording intervals... More about our weather records

Advertising

Kalamaria Weather History for the Previous 24 Hours

Scroll right to see more
 ConditionsComfort  
Time TempWeatherWind HumidityBarometerVisibility
1:20 am
Sun, Apr 30
59 °FPassing clouds.6 mph72%29.83 "HgN/A
12:50 am61 °FPassing clouds.5 mph72%29.83 "HgN/A
12:20 am63 °FPassing clouds.2 mph68%29.86 "HgN/A
11:50 pm
Sat, Apr 29
63 °FPassing clouds.No wind68%29.86 "HgN/A
11:20 pm64 °FPassing clouds.2 mph60%29.86 "HgN/A
10:20 pm66 °FPassing clouds.12 mph49%29.83 "HgN/A
9:50 pm66 °FPassing clouds.7 mph52%29.80 "HgN/A
9:20 pm64 °FPassing clouds.6 mph68%29.86 "HgN/A
8:50 pm66 °FPassing clouds.3 mph56%29.86 "HgN/A
8:20 pm66 °FPassing clouds.No wind52%29.86 "HgN/A
7:50 pm70 °FPassing clouds.2 mph43%29.86 "HgN/A
7:20 pm68 °FPassing clouds.2 mph43%29.86 "HgN/A
6:50 pm68 °FPassing clouds.2 mph49%29.86 "HgN/A
6:20 pm70 °FPassing clouds.6 mph38%29.86 "HgN/A
5:50 pm72 °FPassing clouds.7 mph33%29.86 "HgN/A
5:20 pm70 °FPassing clouds.9 mph50%29.86 "HgN/A
4:50 pm72 °FPassing clouds.5 mph38%29.86 "HgN/A
4:20 pm72 °FPassing clouds.5 mph41%29.86 "HgN/A
3:20 pm70 °FPassing clouds.6 mph38%29.86 "HgN/A
2:50 pm70 °FPassing clouds.9 mph50%29.89 "HgN/A
2:20 pm70 °FPassing clouds.9 mph46%29.89 "HgN/A
1:50 pm70 °FPassing clouds.8 mph40%29.89 "HgN/A
1:20 pm68 °FPassing clouds.7 mph53%29.89 "HgN/A
12:50 pm66 °FPassing clouds.6 mph64%29.89 "HgN/A
12:20 pm66 °FPassing clouds.3 mph56%29.92 "HgN/A
11:50 am66 °FPassing clouds.5 mph56%29.92 "HgN/A
11:20 am66 °FPassing clouds.7 mph56%29.92 "HgN/A
10:20 am66 °FPassing clouds.3 mph46%29.92 "HgN/A
9:50 am66 °FPassing clouds.1 mph49%29.92 "HgN/A
9:20 am63 °FPassing clouds.5 mph59%29.92 "HgN/A
8:50 am63 °FPassing clouds.3 mph56%29.92 "HgN/A
8:20 am59 °FPassing clouds.6 mph63%29.92 "HgN/A
7:50 am54 °FPassing clouds.7 mph77%29.92 "HgN/A
7:20 am55 °FPassing clouds.3 mph72%29.92 "HgN/A
6:50 am54 °FSunny.3 mph77%29.92 "Hg10 mi
6:20 am54 °FClear.2 mph72%29.92 "Hg10 mi
5:50 am55 °FClear.No wind67%29.92 "Hg10 mi
5:20 am52 °FClear.3 mph77%29.89 "Hg10 mi
4:50 am54 °FClear.5 mph72%29.92 "Hg10 mi
4:20 am54 °FClear.6 mph72%29.92 "Hg10 mi
3:50 am54 °FClear.5 mph72%29.92 "Hg10 mi
3:20 am54 °FClear.5 mph72%29.92 "Hg10 mi
2:50 am55 °FClear.3 mph67%29.92 "Hg10 mi
2:20 am54 °FClear.3 mph72%29.95 "Hg10 mi
Weather by CustomWeather, © 2017

See weather overviewHow to use our weather pages